User: anonymous   Login
Location: Bijele Vode
(45.2833°N, 16.2000°E)
Time: 01:03:59
(UTC+00:00)
Language:

CZ-2C R/B - Orbit

View from above orbital plane
View from above orbital plane
View from above satellite
View from above satellite

Ground track
Ground track

The orbit data is extracted from the following two-line orbital elements,

1 43173U 18011E   20334.57755032 +.00004881 +00000-0 +14095-3 0  9998
2 43173 034.9688 114.0759 0142058 065.9235 295.6271 15.25553727158654
Epoch (UTC): 29 November 2020 13:51:40
Eccentricity: 0.0142058
inclination: 34.9688°
perigee height: 391 km
apogee height: 586 km
right ascension of ascending node: 114.0759°
argument of perigee: 65.9235°
revolutions per day: 15.25553727
mean anomaly at epoch: 295.6271°
orbit number at epoch: 15865

The dashed part of the orbit path shows where the satellite is in the earth's shadow,  

DLR